Temp_Advection
nan nan nan nan nan nan nan nan nan nan nan nan nan nan nan nan nan nan nan nan nan nan nan nan nan nan nan nan nan nan nan nan nan nan nan nan nan nan nan nan nan nan nan nan nan nan nan nan nan nan nan nan nan nan nan nan nan nan nan nan nan nan nan nan nan nan nan nan nan
nan 0 0 0 0 0 0 -0 -0 -0 0 -0 -0 -0 -0 -0 0 0 1 1 1 1 1 0 0 0 0 -0 -1 -1 -0 0 1 2 1 0 -1 -1 -1 -0 -1 -0 0 1 0 0 0 0 1 1 1 1 2 2 1 1 1 1 1 0 -1 -0 1 2 2 1 0 -0 nan
nan 0 0 0 0 0 -0 -0 -0 -0 -0 -0 -0 -0 -0 -0 -0 0 0 1 1 2 2 1 0 1 1 1 0 -1 -1 -0 0 1 1 0 -0 -0 -0 0 0 0 0 0 -0 -0 0 1 1 1 1 1 2 2 2 1 1 1 1 0 -0 -0 1 1 1 1 1 1 nan
nan 0 0 0 0 0 0 -0 -0 -0 -0 -0 0 0 -0 -0 -0 -0 0 1 1 1 1 1 1 1 1 1 1 -0 -0 -0 -0 -0 0 0 0 1 1 1 1 1 0 -0 -1 -0 1 2 2 1 0 1 1 2 2 1 1 1 1 1 0 0 1 1 2 3 3 2 nan
nan 0 0 0 0 0 0 0 0 0 0 -0 -0 -0 -0 -0 -0 0 0 1 1 1 1 2 2 2 2 1 1 -0 -0 0 0 0 0 0 0 1 1 1 1 0 -0 -1 -1 0 2 2 1 1 1 1 2 2 2 1 0 -0 0 1 1 1 1 2 4 4 4 2 nan
nan 0 0 0 0 0 0 0 0 0 0 0 -0 -0 -0 -0 -0 0 0 1 1 2 2 2 1 1 1 1 1 0 -0 -0 0 0 0 0 1 1 1 1 0 -0 -1 -1 -1 0 2 1 1 1 1 2 2 2 1 0 -0 0 0 1 1 1 2 4 5 4 2 1 nan
nan -0 -0 -0 -0 0 0 0 0 0 0 0 -0 -0 -0 -0 -0 0 1 1 2 2 2 1 0 -0 -0 0 1 1 0 0 0 0 0 0 0 1 1 0 -1 -1 -1 -0 -0 1 1 1 2 2 2 2 2 2 0 -0 0 0 0 0 1 2 4 5 4 3 1 0 nan
nan -0 -0 -0 -0 -0 -0 0 0 0 0 0 -0 -0 -0 -0 -0 0 0 1 1 2 2 1 0 0 -0 0 0 1 1 0 0 0 0 0 0 0 -0 -1 -1 -1 -0 -0 0 1 2 3 3 2 2 1 2 1 0 0 1 1 1 0 1 3 4 4 3 1 0 0 nan
nan -0 -0 -0 -1 -1 -1 -0 0 0 0 0 -0 -0 -0 -0 -0 0 0 0 1 1 2 2 1 1 0 -0 0 0 0 0 1 1 0 0 -0 -1 -1 -1 -1 -0 -0 0 1 2 3 3 2 1 1 1 1 1 1 1 1 1 1 1 2 3 3 3 2 1 1 2 nan
nan 0 -0 -0 -0 -1 -1 -1 -0 -0 0 0 0 0 0 -0 -0 -0 -0 -0 0 1 2 2 2 1 1 -0 -0 -0 0 0 0 0 0 -0 -1 -1 -1 -0 -0 -0 0 1 3 3 2 1 1 1 1 1 1 1 1 1 2 1 1 1 2 2 3 2 2 2 2 3 nan
nan 0 0 0 0 -0 -1 -1 -1 -0 -0 0 0 0 0 -0 -0 -0 -0 -0 1 1 1 2 2 2 1 -0 -0 0 0 -0 -0 -1 -1 -0 -0 -0 -0 -0 0 1 2 2 2 1 0 0 0 1 1 1 1 1 1 2 2 1 1 1 1 2 2 2 2 3 3 3 nan
nan 0 0 0 0 0 0 -1 -1 -1 -0 -0 0 0 0 -0 -0 -0 -0 0 1 1 1 2 3 2 0 -0 -0 -0 -1 -1 -0 -1 -1 -0 -0 -0 -0 0 1 2 2 1 0 -0 0 0 0 1 1 1 2 2 2 2 2 1 1 1 1 2 2 3 3 3 3 3 nan
nan -0 -0 0 0 1 1 0 -1 -1 -1 -0 0 0 0 0 0 0 0 0 1 1 2 3 3 1 -0 -0 -0 -0 -0 -0 -1 -1 -0 -0 -0 -0 0 1 2 2 1 0 -0 -0 0 0 0 1 1 2 2 2 2 2 2 1 1 1 1 2 2 3 3 3 3 3 nan
nan -1 -1 -0 -0 0 0 0 -0 -1 -1 -1 -0 0 0 0 0 0 1 1 1 1 2 2 2 0 -1 -1 -1 -0 -0 -0 -0 -0 -0 -0 -0 0 1 2 1 1 0 0 0 0 0 0 1 1 2 2 2 2 2 2 2 1 1 1 2 2 3 3 4 4 4 4 nan
nan -1 -1 -0 -0 -0 -0 0 -0 -1 -1 -1 -0 0 0 1 1 1 1 1 1 1 2 1 0 -0 -1 -1 -0 -0 -0 -0 -0 -0 -0 -0 0 1 2 1 0 0 0 0 0 0 0 1 1 1 2 2 2 2 2 2 1 1 2 2 2 3 3 4 4 4 4 3 nan
nan -1 -1 -0 -1 -1 -0 -0 0 -0 -1 -0 -0 0 1 1 1 1 1 1 1 1 1 0 -0 -0 -0 -0 -1 -0 -0 -0 -0 -0 -0 -0 1 1 2 1 0 0 0 0 0 1 1 1 1 1 2 2 2 2 2 2 2 2 3 3 3 3 4 4 4 3 2 -0 nan
nan -1 -1 -1 -1 -1 -1 -1 -1 -0 -0 0 1 1 2 2 1 1 1 1 1 0 -0 -1 -0 -0 -0 -0 -0 -0 -0 -0 -0 -0 -0 0 1 1 1 1 0 -0 0 0 1 1 1 1 1 1 2 2 2 2 2 2 3 3 3 3 4 4 4 3 2 1 -1 -2 nan
nan -1 -1 -1 -1 -1 -1 -1 -1 -0 0 1 1 1 1 1 1 1 1 1 -0 -1 -1 -1 -0 -0 -0 -0 -0 -0 -0 -0 -0 0 0 1 1 2 1 1 0 -0 0 1 1 2 2 1 1 2 3 3 3 3 3 3 3 4 4 4 3 3 2 1 -0 -1 -2 -1 nan
nan -1 -1 -1 -1 -0 1 1 1 1 -0 -0 -0 -0 0 1 1 1 1 0 -1 -1 -1 -0 -0 -0 -0 -0 -0 -0 -0 0 0 0 1 1 1 1 1 0 -0 -0 1 1 2 2 2 2 2 2 3 3 3 3 3 3 3 3 3 3 2 1 0 -1 -1 -2 -1 0 nan
nan -1 -1 -1 -0 0 2 3 2 1 -0 -1 -1 -1 -0 0 1 1 0 -0 -1 -1 -1 -0 -0 -0 -0 -0 -0 0 0 0 1 1 1 1 1 1 0 0 0 1 1 2 2 3 3 2 2 2 2 3 3 3 3 3 3 2 2 1 0 -0 -1 -2 -2 -1 0 1 nan
nan -1 -1 -0 -0 1 2 2 1 0 -0 -0 -1 -0 -0 -0 0 -0 -0 -0 -0 -1 -1 -1 -0 -0 -0 -0 0 0 0 1 1 1 1 1 1 1 1 1 1 1 2 2 3 3 3 2 2 2 2 2 3 3 3 2 2 1 0 -0 -1 -1 -2 -1 -0 1 1 1 nan
nan -0 -0 -0 0 1 1 1 0 0 -0 -1 -1 -1 -0 -0 -0 -0 -0 -0 -0 -0 -0 -0 -0 -0 -0 0 0 0 0 1 1 1 1 1 1 1 1 1 1 2 2 3 3 2 2 1 2 2 2 2 2 2 2 1 0 -0 -1 -1 -2 -2 -1 0 1 1 0 0 nan
nan 0 -0 -0 -0 0 0 0 -0 -0 -0 -1 -1 -1 -0 -0 -0 -0 -0 -0 -0 -0 -0 -0 -0 -0 0 0 1 1 1 1 1 1 2 2 2 1 1 1 2 2 2 2 1 1 1 1 1 2 2 2 1 1 1 0 -0 -1 -1 -2 -1 -0 0 1 1 0 0 0 nan
nan -0 -0 -0 -0 -0 0 0 0 -0 -0 -1 -1 -0 -0 -0 -0 -0 -0 -0 -0 -0 -0 -0 0 0 0 1 1 1 1 1 1 2 2 2 2 1 1 2 2 2 1 1 1 1 1 1 1 1 1 1 1 0 -0 -1 -1 -1 -1 -1 0 1 1 0 0 0 0 0 nan
nan -0 -0 -0 -0 -0 -0 0 0 0 0 -0 -1 -1 -0 -0 -0 0 0 0 0 0 -0 -0 0 1 1 1 1 1 2 2 2 2 1 2 2 2 2 2 1 1 1 1 1 1 1 1 1 1 1 0 -0 -1 -1 -1 -1 -1 -0 1 1 1 0 0 0 0 0 0 nan
nan -1 -1 -1 -1 -1 -0 -0 -0 0 0 -0 -0 -1 -0 -0 0 0 0 0 0 0 0 0 1 1 1 1 2 2 2 2 2 1 1 1 1 1 1 1 1 1 1 1 1 1 1 1 1 0 0 -0 -1 -1 -1 -1 -0 0 1 1 0 0 0 0 0 0 0 0 nan
nan -1 -1 -1 -1 -1 -1 -1 -0 -0 -0 -0 -0 -0 -0 -0 0 0 0 0 0 0 0 1 1 1 1 2 2 2 2 2 1 1 1 1 1 0 0 0 1 1 1 1 1 1 0 0 0 -0 -0 -1 -1 -0 -0 0 0 0 0 0 0 0 0 0 0 0 0 0 nan
nan -1 -1 -1 -1 -1 -1 -1 -1 -0 -0 -0 -0 -0 -0 0 0 0 0 0 0 0 1 1 2 2 2 2 2 1 1 1 0 0 0 0 0 0 0 0 1 1 1 1 0 0 0 0 -0 -0 -0 -0 0 0 0 0 0 0 0 0 0 0 0 0 0 0 0 0 nan
nan -1 -1 -1 -1 -1 -1 -1 -1 -0 -0 -0 -0 -0 0 0 0 0 0 1 1 1 2 2 2 1 1 1 0 0 0 0 0 0 0 0 0 0 0 0 1 1 0 0 0 -0 -0 -0 -0 -0 0 0 0 0 0 0 0 0 0 0 0 0 0 0 0 0 0 0 nan
nan -1 -1 -1 -1 -1 -1 -0 -0 -1 -0 -0 -0 0 0 0 1 1 1 1 1 1 1 1 1 0 0 0 0 0 0 0 0 0 0 0 0 0 0 0 0 0 0 -0 -0 -0 -0 -0 -0 0 0 0 0 0 0 0 0 0 0 0 0 0 0 0 0 0 0 0 nan
nan -0 -0 -0 -0 -0 -0 -0 -0 -0 -0 -0 0 0 1 1 1 1 1 1 1 0 0 0 0 0 0 0 0 0 0 0 0 0 0 0 0 0 0 0 0 -0 -0 -0 -0 -0 0 0 0 0 0 0 0 0 0 0 0 0 0 0 0 0 0 0 0 0 0 0 nan
nan -1 -1 -0 -0 -0 -0 -0 -0 -0 0 0 0 0 1 1 1 1 0 0 0 0 0 0 0 0 0 0 0 0 0 0 0 0 0 0 0 0 0 -0 -0 -0 -0 -0 0 0 0 0 0 0 0 0 0 0 0 0 0 0 0 0 0 0 0 0 0 0 0 0 nan
nan -0 -0 -0 -0 -0 -0 -0 0 0 0 0 0 0 0 0 0 0 0 0 0 0 0 0 0 0 0 0 0 0 0 0 0 0 0 0 0 -0 -0 -0 0 0 0 0 0 0 0 0 0 0 0 0 0 0 0 0 0 0 0 0 0 0 0 0 0 0 0 0 nan
nan -0 -0 -0 -0 -0 -0 0 0 0 0 0 0 0 0 0 0 0 0 0 0 0 0 0 0 0 0 0 0 0 0 0 0 0 0 0 0 -0 -0 -0 0 0 0 0 0 0 0 0 -0 -0 0 0 0 0 0 0 0 0 0 0 0 0 0 0 -0 -0 0 0 nan
nan -0 -0 -0 -0 -0 -0 -0 0 -0 -0 -0 0 0 0 0 0 0 0 0 0 0 0 0 0 0 0 0 0 0 0 -0 0 0 0 0 0 -0 -0 -0 -0 0 0 0 0 -0 -0 -0 -0 -0 -0 0 0 0 0 0 0 0 0 -0 -0 -0 -0 0 0 0 0 0 nan
nan -0 -0 -0 -0 -0 -0 -0 -0 -0 -0 -0 0 0 0 0 0 0 0 0 0 0 0 0 0 0 0 0 0 0 0 0 0 0 0 0 0 0 -0 -0 -0 -0 -0 -0 -0 -0 -0 -0 -0 -0 0 0 0 0 0 -0 -0 -0 -0 -0 -0 -0 -0 0 0 0 0 0 nan
nan -0 -0 -0 -0 -0 -0 -0 -0 0 0 0 0 0 0 0 0 0 0 0 0 0 0 0 0 0 0 0 0 0 0 0 0 0 0 0 0 0 0 -0 -0 -0 -0 -0 -0 -0 0 0 0 0 0 -0 -0 -0 -0 -0 -0 -0 -0 -0 0 0 0 0 0 0 0 0 nan
nan -0 -0 -0 -0 -0 -0 -0 0 0 0 0 0 0 0 0 -0 -0 0 0 0 -0 0 0 0 0 0 0 -0 0 0 0 0 0 0 0 0 0 0 0 -0 -0 0 0 0 0 0 -0 -0 -0 -0 -0 -0 -0 -0 -0 -0 -0 -0 -0 0 0 0 0 0 0 0 -0 nan
nan -0 -0 -0 -0 -0 -0 -0 -0 0 0 0 0 0 0 -0 -0 -0 0 0 0 -0 -0 -0 0 0 0 0 -0 -0 -0 0 0 0 -0 0 0 0 0 0 0 0 0 0 -0 -0 -0 -0 -0 -0 -0 -0 -0 -0 -0 -0 -0 -0 -0 -0 -0 0 -0 -0 -0 -0 -0 -0 nan
nan -0 -0 -0 -0 -0 -0 -0 -0 0 0 0 0 0 0 -0 -0 -0 0 0 0 0 -0 -0 -0 -0 0 0 0 -0 -0 -0 -0 -0 -0 -0 -0 0 0 0 0 0 -0 -0 -0 -0 -0 -0 -0 -0 -0 -0 -0 -0 -0 -0 -0 -0 -0 -0 -0 -0 -0 -0 -0 -0 -0 0 nan
nan nan nan nan nan nan nan nan nan nan nan nan nan nan nan nan nan nan nan nan nan nan nan nan nan nan nan nan nan nan nan nan nan nan nan nan nan nan nan nan nan nan nan nan nan nan nan nan nan nan nan nan nan nan nan nan nan nan nan nan nan nan nan nan nan nan nan nan nan
Wind_Speed
18 19 19 20 21 22 22 22 22 21 21 22 23 23 24 24 25 26 27 28 30 31 32 33 33 34 35 36 37 38 39 39 37 34 30 28 28 27 26 25 23 22 21 22 25 29 32 34 35 35 36 37 38 38 38 39 39 39 38 37 36 34 33 33 33 34 34 34 35
15 15 15 16 17 18 19 19 19 18 18 18 18 19 19 20 21 22 23 25 26 28 30 31 31 32 33 34 35 36 38 38 37 35 32 31 31 31 31 30 28 26 25 25 25 28 31 34 35 35 36 37 38 39 39 39 40 39 38 36 34 33 33 34 35 36 37 37 37
13 13 13 14 14 15 16 16 16 16 15 14 15 15 16 16 17 18 20 22 24 26 28 30 30 31 32 32 33 34 35 36 36 35 34 33 33 34 34 33 32 31 30 28 28 29 32 35 36 36 37 38 39 40 40 41 41 41 39 36 35 34 35 36 37 38 39 39 37
11 11 12 12 13 14 14 14 14 14 13 13 13 14 15 15 15 16 18 20 22 24 26 28 29 30 31 32 32 33 33 34 34 34 34 33 33 34 34 33 33 32 31 31 31 32 33 34 35 35 36 37 40 41 41 41 41 42 41 38 37 36 37 38 39 40 40 39 38
9 9 10 11 11 12 12 12 13 13 13 13 14 15 16 16 16 17 18 20 22 24 25 27 28 30 31 31 32 32 33 33 33 33 32 32 32 33 33 33 33 32 31 31 32 33 33 33 33 34 35 37 39 40 40 39 39 39 40 39 39 39 39 40 40 40 40 39 38
8 8 8 9 9 10 10 10 11 12 12 13 14 15 15 16 17 18 19 21 23 24 26 27 29 30 31 31 32 33 33 33 32 32 32 32 31 31 32 32 31 30 30 30 32 33 34 34 34 34 35 36 38 39 38 38 37 38 38 38 39 40 41 41 41 40 40 40 39
7 7 8 8 8 9 9 9 9 10 11 12 14 15 15 15 16 18 20 22 24 25 27 28 29 30 31 32 33 33 33 33 33 33 32 32 31 31 31 31 30 30 30 31 33 34 35 36 36 35 35 35 36 37 37 37 37 37 38 39 40 41 42 42 41 41 41 41 41
7 8 9 9 9 10 9 9 9 9 10 12 13 14 14 15 16 18 20 22 24 25 27 28 29 30 31 32 33 33 34 34 33 33 32 32 31 31 30 30 30 31 31 32 33 35 36 37 36 35 34 34 36 37 37 37 37 37 38 39 41 42 42 42 42 42 42 43 42
9 10 10 11 12 12 12 11 10 10 10 11 11 12 13 14 16 18 20 22 23 25 26 27 28 29 30 31 32 33 33 34 34 33 32 32 31 31 30 30 31 32 32 33 34 35 36 35 34 34 34 35 36 36 36 37 37 37 38 40 42 43 43 43 43 43 43 43 41
12 13 13 14 15 15 15 15 14 13 11 11 11 12 13 14 16 17 19 21 23 25 26 27 28 28 29 30 31 32 33 33 33 32 32 31 30 30 30 30 31 32 33 34 35 34 33 32 32 33 33 34 35 35 36 36 37 37 38 40 43 44 44 44 44 44 43 42 40
18 18 18 19 19 19 19 19 18 17 15 13 12 12 13 14 16 18 19 21 23 24 26 26 27 27 28 30 31 31 32 32 32 31 30 30 31 31 31 31 32 33 33 33 33 31 30 29 29 30 31 33 34 35 35 36 37 37 38 40 43 44 45 45 45 44 42 40 38
24 24 24 25 25 24 24 23 22 21 19 17 15 14 14 15 16 18 19 21 23 24 25 26 26 26 27 29 30 30 30 30 30 30 30 30 30 31 32 32 33 33 31 30 29 27 26 25 25 27 29 31 32 34 35 36 37 37 38 40 43 44 45 45 44 42 40 38 36
28 29 29 30 30 29 28 27 26 25 23 21 19 17 16 16 17 18 19 21 22 23 23 24 24 25 26 27 28 28 28 28 28 29 29 29 30 31 32 33 32 30 28 27 26 25 23 23 24 26 28 29 31 33 34 35 36 37 38 40 42 43 44 43 42 40 38 36 34
28 30 30 31 31 31 31 30 28 27 26 25 23 21 19 18 18 18 19 20 21 21 21 22 23 24 25 26 26 26 27 27 27 28 28 29 30 32 33 32 30 27 26 25 24 24 23 24 25 26 27 29 30 32 33 34 35 36 38 40 41 42 42 41 40 38 36 34 31
26 28 29 29 30 30 30 30 30 29 28 26 25 24 22 20 19 19 19 18 18 18 19 20 21 22 22 23 25 26 26 27 27 28 29 29 31 32 32 29 27 25 24 24 24 24 24 25 25 26 27 28 29 31 32 34 35 36 37 39 40 40 40 39 37 35 32 28 26
24 25 26 27 28 29 30 31 31 31 29 27 26 25 23 21 19 18 17 16 16 17 18 19 20 20 21 22 23 25 26 26 27 28 29 30 31 31 30 27 25 24 24 24 25 25 26 26 26 26 27 28 29 30 32 33 35 36 37 38 38 37 36 35 32 28 25 23 22
24 25 25 26 27 28 30 31 33 33 31 28 26 24 22 20 18 16 15 14 15 16 17 19 20 20 21 22 23 24 25 26 26 27 28 30 31 31 29 26 25 24 24 25 26 26 27 27 26 27 27 27 29 30 32 33 34 35 35 35 34 33 31 28 25 22 21 21 21
24 25 25 25 26 27 28 28 29 29 28 26 24 21 19 17 15 14 13 14 15 16 17 19 20 21 22 23 23 24 24 25 26 27 29 30 30 29 28 26 25 25 25 26 27 27 27 27 26 26 27 27 28 29 31 32 32 33 32 31 29 26 24 21 20 19 20 21 20
24 24 24 25 25 26 25 23 22 21 20 19 19 18 16 14 13 13 14 15 16 17 18 19 20 21 23 23 24 24 25 26 27 28 29 30 29 28 27 26 25 26 26 27 27 26 26 25 25 26 26 26 27 28 29 30 30 29 27 25 22 20 18 18 19 20 20 19 17
22 23 23 23 24 24 23 20 18 15 13 13 13 13 13 13 14 14 14 15 16 18 19 21 22 23 23 24 24 25 26 27 28 29 29 29 29 28 27 26 26 26 26 26 26 25 24 24 24 24 24 25 26 27 28 27 26 24 21 19 17 17 17 19 20 20 18 16 13
20 20 20 21 22 21 20 17 14 11 10 11 12 13 14 15 15 15 16 16 16 17 19 21 22 23 23 24 25 26 27 27 28 29 29 29 28 28 27 26 26 25 25 25 24 23 22 22 22 22 23 24 25 25 24 23 21 19 17 16 16 17 19 20 19 17 15 12 10
16 16 16 17 17 17 15 12 10 10 11 13 14 15 16 16 16 16 16 16 16 17 18 20 21 22 24 25 26 27 27 28 28 28 28 28 28 27 26 25 24 24 23 22 21 20 19 19 20 20 21 21 21 21 19 18 16 15 15 16 18 19 20 18 16 13 11 9 8
11 11 11 11 11 10 9 8 10 12 15 17 17 17 18 18 18 18 18 18 18 18 18 19 20 22 23 25 26 27 28 28 28 28 28 27 26 25 24 23 22 21 20 19 17 16 16 17 18 18 18 18 18 17 15 14 14 14 16 18 20 20 18 15 12 10 8 8 8
8 7 6 6 6 7 7 8 11 14 17 19 20 20 20 20 20 20 20 20 19 19 18 17 18 20 22 24 25 27 27 28 28 27 27 25 24 22 21 20 19 17 15 14 13 13 13 14 15 16 16 16 15 14 14 14 15 17 18 19 19 17 14 12 10 9 8 8 9
7 6 6 6 7 7 8 9 11 14 16 18 20 21 22 22 22 22 22 22 21 19 18 17 18 20 22 23 24 25 26 26 26 25 23 22 20 19 17 16 14 12 11 10 10 10 11 12 13 14 15 15 15 15 15 16 17 18 18 17 16 13 11 9 9 8 9 9 10
9 9 9 9 9 8 8 9 11 13 16 18 20 21 22 23 23 23 23 23 22 21 20 19 19 20 21 23 24 25 24 23 22 20 18 16 14 13 12 10 9 8 8 8 8 9 10 11 12 13 14 15 16 17 17 18 18 17 16 14 12 11 9 9 8 9 10 10 11
11 11 11 11 11 10 10 10 12 13 15 17 19 20 21 22 23 23 23 22 22 22 22 21 21 21 21 22 23 22 21 18 15 13 11 10 9 8 6 5 5 6 7 8 9 9 10 11 12 14 15 16 17 17 18 17 17 15 13 11 10 9 9 9 9 10 10 11 12
13 13 12 12 12 11 12 12 12 13 15 16 18 19 21 22 22 22 22 21 21 22 22 22 21 21 20 19 18 16 14 11 9 8 7 6 5 4 3 3 4 6 8 9 9 10 11 12 13 15 16 16 17 17 16 15 14 12 10 9 9 9 9 9 10 11 11 12 12
13 13 13 12 12 12 13 13 13 14 15 16 17 19 20 20 21 20 20 20 20 20 20 19 18 16 15 13 11 10 8 7 6 4 3 2 2 2 3 5 7 8 9 9 10 10 12 13 14 15 16 15 15 15 14 13 11 10 9 9 9 9 9 10 11 11 11 11 11
12 12 12 12 12 13 13 13 13 13 14 15 16 17 17 18 18 18 18 17 16 15 14 12 11 9 8 7 7 6 5 4 3 2 1 2 4 5 7 8 9 10 10 10 11 12 13 14 15 15 15 14 14 13 12 10 9 9 9 9 9 10 10 10 11 11 10 10 10
11 11 11 12 12 12 12 12 12 12 13 14 14 15 15 15 14 14 13 12 10 9 8 7 6 5 4 4 4 3 3 3 3 3 4 5 7 9 10 11 11 11 11 11 12 12 13 14 14 14 14 13 12 11 10 9 9 9 9 9 10 10 10 10 10 9 9 9 9
10 10 10 11 11 11 11 11 11 11 12 12 12 12 12 11 10 9 8 7 6 5 4 3 3 3 3 4 4 4 5 5 6 6 7 8 10 11 12 13 12 12 12 12 12 13 13 13 13 13 12 11 10 9 9 9 9 9 9 9 9 9 8 8 8 8 8 9 9
8 8 9 9 9 9 9 9 9 9 9 9 9 8 8 7 6 5 5 4 3 3 3 3 3 4 5 5 6 7 8 8 9 9 10 11 12 13 13 13 13 12 12 12 12 12 12 12 12 11 10 10 9 9 8 8 8 8 8 7 7 7 7 7 7 7 8 8 8
7 7 7 7 7 7 7 7 7 6 6 5 5 5 4 4 3 3 3 3 4 4 5 5 5 6 7 7 8 9 10 11 11 11 12 13 13 14 14 14 14 13 12 12 11 11 11 11 10 9 9 8 8 8 7 7 6 6 5 5 5 5 6 6 6 6 7 8 8
5 5 6 5 5 5 4 4 3 3 3 3 2 2 1 1 2 2 3 4 5 6 7 7 8 9 9 10 10 11 12 13 13 13 14 14 14 14 14 14 13 12 11 10 10 10 9 9 8 8 7 7 6 5 5 4 4 4 4 4 4 4 5 5 6 6 7 8 9
5 4 4 4 3 2 2 1 1 1 1 0 0 1 2 3 4 4 5 5 7 8 9 10 11 11 12 13 13 13 14 14 15 15 14 14 14 14 13 13 12 11 9 8 8 8 8 7 6 6 5 4 3 2 2 2 3 4 4 4 4 4 5 5 6 7 8 8 9
5 4 3 2 2 1 1 1 1 1 1 2 2 3 4 5 6 7 7 8 9 11 12 13 13 14 14 15 15 15 15 15 15 14 14 13 12 11 10 10 9 8 7 6 6 5 5 4 3 2 1 1 2 3 3 3 4 4 4 4 4 5 5 6 7 7 8 8 9
5 4 3 2 2 2 2 2 2 2 3 4 5 6 7 8 9 9 10 11 12 13 15 15 16 16 16 16 16 16 15 14 14 13 12 11 9 8 7 7 7 6 5 4 3 2 1 1 2 3 3 4 4 4 4 4 4 4 4 4 5 5 6 6 7 7 7 8 8
5 4 4 3 3 3 3 3 3 4 5 6 8 9 10 11 12 13 13 13 15 16 17 17 17 17 16 16 16 15 15 14 12 11 11 10 8 7 6 5 5 4 4 3 3 3 4 4 4 4 4 4 4 4 4 4 4 4 5 5 5 6 6 6 6 6 6 6 7
6 5 4 4 4 4 5 5 6 7 9 10 11 13 14 15 15 15 15 16 16 17 17 18 17 16 15 15 14 14 13 13 12 11 10 9 8 6 5 4 3 4 4 5 5 5 5 5 4 4 4 4 4 4 4 4 5 5 5 5 6 6 6 5 5 5 5 5 6
8 7 7 7 7 8 9 10 11 12 13 14 15 16 17 17 17 17 16 16 16 17 17 16 16 15 14 13 13 12 12 11 11 10 9 8 7 6 5 5 5 5 5 5 5 4 4 4 4 4 4 4 4 5 5 5 5 5 5 5 5 5 5 5 5 5 5 6 7
Wind_Direction
239 241 243 247 250 252 253 254 255 256 256 256 257 257 258 259 261 261 262 262 261 260 260 259 259 259 260 260 260 261 262 262 259 254 248 244 240 240 243 248 256 262 267 271 272 268 261 257 257 258 259 258 257 255 253 252 250 248 245 242 242 243 241 235 226 223 225 229 232
233 234 237 241 246 249 252 253 254 255 255 256 257 258 260 261 262 263 263 264 264 264 263 263 262 261 261 261 261 261 262 262 261 257 251 246 244 246 249 252 257 262 266 267 268 266 262 259 259 260 262 262 260 257 254 252 251 249 247 244 244 245 242 236 227 224 224 227 230
226 227 229 233 238 242 246 249 251 253 256 258 260 261 262 263 264 265 266 267 267 266 265 265 265 264 264 263 262 262 261 262 262 261 258 254 252 253 255 259 262 265 267 268 267 264 260 257 256 259 262 264 262 259 255 253 251 251 249 248 247 245 242 236 230 227 225 226 228
225 227 228 231 234 238 243 247 252 256 260 265 266 266 265 265 265 265 266 267 267 266 266 266 266 265 265 264 263 263 262 262 262 262 261 259 257 257 259 262 264 266 268 269 267 263 258 255 256 259 262 263 262 259 255 253 252 252 252 250 248 245 241 237 233 229 226 225 226
235 236 237 237 238 241 244 249 254 258 263 267 269 269 267 265 264 263 263 263 264 264 265 265 265 264 264 264 263 263 263 262 262 262 261 260 259 260 261 263 265 267 269 270 268 263 257 254 256 259 261 261 259 256 253 252 252 253 252 250 247 244 240 236 232 228 225 224 224
252 253 252 251 249 248 248 250 253 256 260 262 264 266 266 265 263 262 261 261 262 262 262 262 262 263 263 263 263 262 262 262 261 261 261 261 261 262 263 265 268 270 271 271 267 261 256 254 256 259 260 259 256 253 251 250 250 251 250 247 244 240 237 232 228 225 223 222 222
277 279 278 275 271 266 262 259 258 257 256 256 259 261 263 263 263 263 264 264 264 263 261 260 260 260 261 262 262 261 261 261 262 262 262 262 263 264 266 268 270 271 270 269 266 261 257 255 255 258 259 259 254 251 249 249 249 248 246 243 240 236 232 227 224 222 221 221 221
302 306 306 304 299 293 287 280 273 264 258 256 258 260 262 263 263 264 265 266 265 264 261 259 259 259 260 261 261 262 262 262 263 263 264 265 267 268 270 270 270 270 268 267 264 261 257 256 256 258 259 258 254 251 250 250 250 248 245 241 237 232 228 224 222 221 221 221 221
308 313 316 317 315 312 307 299 291 280 270 264 263 262 262 261 261 261 262 263 264 263 262 260 259 259 259 260 261 262 262 263 264 266 267 269 271 272 272 272 271 270 267 265 262 259 257 257 259 260 260 258 255 253 252 252 250 248 244 239 234 229 226 223 221 221 221 221 221
299 305 309 313 315 315 313 309 303 295 285 276 270 265 261 259 258 258 259 260 261 261 261 261 260 259 258 260 261 262 263 264 266 268 270 272 273 273 273 273 272 270 266 262 259 258 259 260 262 262 261 258 256 255 254 252 250 248 243 238 232 227 224 222 221 220 221 221 221
294 297 300 303 306 309 310 309 307 302 295 286 278 269 263 260 258 258 259 260 260 260 261 260 260 259 258 259 261 262 264 265 268 270 272 273 273 273 273 272 271 267 264 261 260 260 262 263 264 264 262 260 258 256 254 252 250 247 242 236 231 226 223 222 220 220 220 220 220
292 293 295 296 298 301 303 305 305 303 299 293 285 276 268 263 261 260 261 260 260 260 260 260 260 259 259 260 261 263 265 267 269 271 272 272 272 272 272 269 266 264 262 261 261 262 264 265 266 266 265 263 260 257 255 252 250 246 241 235 230 226 223 222 220 220 220 220 219
293 293 293 294 295 296 297 299 301 301 299 295 290 282 275 268 264 262 261 261 261 261 261 260 260 261 261 262 263 265 267 269 270 271 271 272 273 272 270 266 263 261 260 260 260 261 263 266 267 267 266 264 261 257 254 252 249 245 239 234 228 224 222 221 221 220 220 219 218
295 295 294 293 294 294 295 296 297 297 297 295 291 286 279 272 266 263 262 262 262 263 263 262 262 262 263 264 266 267 268 269 269 269 270 271 271 269 266 263 261 260 260 259 260 262 264 266 267 267 265 262 259 256 253 250 247 243 238 231 226 223 221 221 221 220 219 217 216
296 295 295 294 294 294 294 294 295 294 293 291 289 286 280 272 266 263 263 263 265 266 266 264 263 263 264 265 266 267 267 268 268 269 269 269 269 266 263 260 259 259 260 261 263 264 266 266 267 265 263 259 256 253 250 247 244 239 234 228 224 222 220 220 219 218 217 215 214
295 295 295 295 294 293 291 291 290 290 290 288 285 282 277 269 264 262 262 264 266 267 267 265 264 264 264 264 264 264 265 266 267 268 269 269 267 264 261 259 258 260 262 265 266 266 265 264 263 262 259 255 252 249 246 243 239 234 228 224 221 220 219 218 217 215 214 214 216
293 293 293 293 292 289 285 284 282 282 283 283 281 278 273 266 262 260 261 263 264 264 264 264 264 264 263 263 262 262 263 264 266 267 267 266 264 261 258 257 258 261 264 266 266 265 263 261 260 257 254 250 247 244 241 237 233 228 223 220 219 218 218 216 215 214 214 216 218
289 289 288 288 288 285 282 280 278 276 277 277 276 274 270 266 263 260 260 260 260 260 261 261 261 261 261 261 260 260 261 262 264 264 263 261 259 256 254 255 257 260 263 264 264 262 260 258 256 253 249 245 241 238 235 231 227 223 219 217 216 215 213 212 212 214 216 216 215
286 285 284 282 281 280 279 278 277 276 276 275 274 271 268 266 263 259 256 255 255 256 257 257 257 258 258 259 259 259 259 260 260 259 258 256 254 252 252 253 255 258 260 260 260 258 256 253 251 248 244 239 235 231 228 225 221 218 215 212 210 208 208 210 213 214 215 213 211
284 281 280 278 277 276 275 274 274 274 276 278 275 271 265 261 258 255 253 253 254 255 256 256 256 256 256 257 258 259 258 257 256 254 253 252 251 251 251 253 255 257 258 258 257 254 250 247 245 242 238 233 229 225 222 218 215 211 208 205 203 205 209 213 214 213 212 210 210
281 279 277 276 275 273 272 271 271 273 276 275 273 268 263 260 258 256 256 256 255 256 257 258 258 257 257 257 258 257 256 254 253 251 250 250 250 250 251 253 255 257 258 256 253 249 245 242 239 236 232 228 223 219 216 211 206 203 200 201 205 210 213 214 212 209 207 208 213
281 279 278 277 276 274 272 272 277 281 278 271 266 262 260 259 257 256 256 256 256 257 258 259 259 259 258 257 255 253 252 251 249 249 248 249 249 250 251 253 255 256 255 252 249 246 242 239 235 231 226 222 217 213 208 203 200 199 202 208 213 215 213 210 205 203 205 213 225
287 287 287 287 284 281 280 282 287 284 278 272 266 262 259 258 255 253 252 252 253 254 257 259 260 260 258 255 252 250 248 247 245 245 245 246 246 248 250 252 253 252 252 251 249 246 242 237 231 226 220 215 210 205 202 201 203 208 214 216 216 212 206 201 200 204 214 227 241
301 304 308 308 304 299 295 293 293 288 282 275 269 264 261 259 257 254 252 251 252 253 256 259 261 261 258 253 249 246 244 242 241 241 242 244 245 247 249 251 251 252 252 253 251 248 242 235 226 219 214 209 205 203 204 208 213 216 216 213 208 201 197 198 205 216 230 242 251
331 333 333 330 325 319 314 307 304 298 289 280 273 267 263 260 258 256 254 251 249 249 250 254 257 258 256 252 247 244 241 239 239 240 242 244 246 248 250 252 253 253 252 249 245 240 235 230 223 216 210 207 206 207 210 213 213 211 206 200 195 193 197 206 219 231 242 250 255
352 349 345 339 335 330 322 313 309 303 294 284 276 270 264 260 257 255 252 249 246 244 244 245 248 249 249 247 244 240 238 237 238 241 244 247 250 251 253 254 252 246 239 231 227 224 223 221 219 216 212 210 210 211 211 208 203 197 192 189 191 198 209 221 233 242 248 252 256
353 348 343 338 334 327 321 317 313 306 296 286 277 271 266 262 258 254 251 248 246 245 244 243 242 241 240 240 238 236 235 235 238 243 250 256 258 257 254 248 235 221 214 212 212 214 215 215 215 214 212 210 208 205 202 196 190 186 185 190 199 211 222 231 239 245 249 253 256
344 339 334 330 324 319 318 317 312 303 293 284 277 272 268 263 258 254 250 247 246 245 244 242 239 237 235 234 233 233 235 239 245 251 256 257 254 247 236 213 195 193 196 200 204 207 209 209 208 207 206 204 200 195 190 185 183 185 192 202 213 224 231 238 244 248 252 255 258
335 329 323 317 312 310 310 307 301 293 286 280 274 270 266 261 257 254 250 247 245 242 239 237 237 236 235 235 236 239 243 246 250 251 248 231 207 187 175 172 175 181 188 194 199 202 202 201 200 198 197 194 190 186 183 182 186 194 205 216 225 232 239 244 249 252 255 258 262
328 320 312 306 303 300 296 291 286 282 278 274 270 265 261 257 253 250 247 245 241 239 238 238 240 240 242 244 245 243 238 232 224 203 164 149 151 155 161 166 171 176 184 191 195 196 195 193 190 188 186 183 181 181 183 188 196 207 217 225 232 238 243 248 252 256 261 266 272
322 314 306 300 294 288 281 276 274 272 269 266 263 261 257 252 248 245 243 242 240 240 242 244 244 241 235 228 216 201 182 159 136 123 126 139 149 156 162 166 170 175 183 189 191 189 186 183 180 179 178 178 181 185 191 199 208 217 225 232 237 242 247 253 259 266 274 282 289
318 311 302 293 284 277 272 269 265 261 258 256 255 255 253 249 246 244 243 242 240 238 234 225 212 198 183 168 156 145 136 128 125 128 137 148 155 160 165 169 172 176 181 184 183 180 178 176 176 177 179 183 189 196 203 211 218 225 231 237 242 250 258 267 277 285 292 297 299
317 309 298 287 278 273 269 265 259 254 250 249 251 252 253 252 251 247 238 226 213 198 178 163 155 150 145 139 135 132 130 129 132 138 147 156 162 165 168 170 170 173 175 176 175 174 174 176 178 181 186 192 198 206 213 219 225 231 239 247 258 269 281 291 298 301 301 298 295
321 313 302 292 283 276 270 264 258 254 253 254 257 260 260 257 248 229 203 181 165 152 142 134 131 129 127 127 129 130 132 134 139 146 154 160 166 169 169 168 167 167 168 169 170 173 176 180 184 189 194 200 206 212 219 226 235 244 256 272 287 297 303 305 303 300 296 292 289
337 327 315 304 294 284 275 268 266 267 269 269 267 261 244 211 184 166 156 148 142 135 129 123 121 121 122 123 126 130 134 138 143 149 156 162 166 167 166 164 162 161 161 164 169 174 180 185 189 194 199 205 211 220 231 246 265 282 297 310 314 313 310 304 297 292 289 287 286
359 346 332 320 308 299 290 286 291 296 299 287 121 131 132 133 133 131 130 129 127 125 122 120 119 121 124 126 129 132 136 139 144 148 154 159 162 162 160 158 156 154 156 160 168 175 181 187 192 197 205 217 231 252 281 311 327 332 333 329 319 309 302 296 291 289 287 287 286
16 6 354 345 342 353 17 48 69 83 93 98 105 113 119 122 122 120 118 118 119 119 118 118 120 122 125 128 130 133 136 139 142 145 148 152 155 156 156 154 152 151 153 158 167 175 181 187 194 203 237 336 352 357 360 359 352 343 332 320 308 299 294 291 289 289 290 291 291
24 19 12 9 18 41 63 79 85 88 93 101 108 114 116 117 115 114 113 114 115 116 117 118 120 122 124 127 129 132 134 136 138 140 142 146 150 154 155 154 152 150 150 151 153 149 132 82 48 35 29 26 20 13 5 355 342 329 316 306 298 294 293 293 295 297 299 300 301
31 26 24 25 34 48 62 73 81 89 99 107 112 114 114 113 112 111 112 113 114 115 117 118 120 122 124 126 128 130 132 133 136 139 143 146 150 153 154 152 148 140 126 105 84 68 59 51 44 37 29 21 11 360 348 335 325 315 307 302 301 301 301 303 305 308 310 310 311
44 42 43 46 54 64 74 84 93 101 106 109 111 111 111 110 110 110 111 113 113 114 116 117 119 121 123 125 127 129 132 136 140 144 147 148 148 145 139 127 110 94 82 74 68 61 54 47 37 27 16 5 353 343 333 327 322 318 314 311 311 312 311 311 313 316 319 322 322
64 65 69 74 80 87 93 99 103 105 107 107 107 107 107 107 107 108 110 111 112 113 113 115 116 119 122 125 128 132 135 139 142 144 143 140 131 119 104 86 69 60 57 57 57 55 47 35 23 9 360 352 344 339 334 331 328 325 321 318 317 315 316 317 323 329 334 336 335
Height
1475 1476 1476 1477 1477 1477 1477 1478 1478 1478 1478 1478 1478 1478 1479 1479 1479 1479 1479 1480 1480 1480 1481 1481 1482 1482 1483 1484 1484 1485 1485 1486 1486 1487 1488 1489 1490 1490 1491 1491 1492 1493 1494 1495 1495 1495 1496 1497 1497 1498 1498 1498 1498 1499 1500 1501 1502 1504 1504 1504 1504 1504 1504 1505 1505 1507 1507 1508 1509
1474 1474 1474 1475 1475 1476 1476 1477 1477 1477 1477 1477 1477 1477 1477 1477 1477 1477 1477 1477 1478 1478 1478 1479 1479 1480 1481 1481 1482 1483 1484 1484 1484 1485 1486 1487 1488 1488 1488 1489 1489 1490 1492 1492 1493 1493 1493 1494 1495 1495 1496 1496 1496 1496 1497 1498 1500 1501 1502 1502 1502 1502 1502 1502 1503 1504 1504 1505 1506
1473 1473 1473 1473 1474 1474 1475 1475 1476 1476 1476 1476 1476 1476 1476 1476 1476 1476 1476 1476 1476 1476 1477 1477 1477 1477 1478 1479 1480 1481 1482 1482 1483 1483 1484 1485 1486 1486 1487 1487 1488 1488 1489 1490 1490 1491 1491 1492 1492 1493 1493 1494 1494 1494 1495 1496 1497 1497 1498 1499 1500 1500 1500 1500 1500 1501 1501 1502 1503
1472 1472 1472 1472 1473 1473 1473 1474 1474 1475 1475 1475 1475 1475 1475 1475 1475 1475 1475 1475 1475 1475 1475 1475 1475 1475 1476 1477 1477 1478 1479 1480 1481 1481 1482 1483 1483 1484 1485 1485 1486 1487 1487 1488 1488 1488 1489 1490 1491 1491 1492 1492 1492 1492 1492 1493 1494 1495 1496 1497 1497 1497 1497 1497 1497 1497 1498 1500 1501
1472 1472 1472 1472 1472 1472 1472 1473 1473 1473 1474 1474 1474 1474 1474 1473 1473 1473 1473 1473 1473 1473 1473 1473 1473 1474 1474 1474 1475 1476 1477 1477 1478 1479 1480 1481 1481 1482 1483 1483 1484 1484 1485 1486 1486 1487 1487 1488 1489 1489 1490 1490 1490 1490 1491 1492 1492 1493 1494 1494 1495 1495 1494 1494 1494 1495 1496 1497 1498
1471 1471 1471 1471 1471 1471 1471 1471 1471 1472 1472 1472 1472 1472 1472 1472 1472 1472 1472 1472 1472 1472 1472 1472 1472 1472 1472 1472 1473 1473 1474 1475 1476 1477 1477 1478 1479 1480 1481 1481 1482 1482 1483 1483 1484 1484 1485 1486 1486 1487 1487 1487 1488 1488 1489 1490 1490 1491 1491 1492 1492 1492 1492 1492 1492 1492 1493 1494 1494
1470 1470 1470 1470 1469 1469 1469 1469 1470 1470 1470 1470 1471 1471 1471 1471 1471 1470 1470 1470 1470 1471 1471 1471 1471 1471 1471 1471 1471 1472 1472 1472 1473 1474 1475 1476 1477 1477 1478 1479 1479 1480 1480 1481 1481 1482 1482 1483 1484 1484 1485 1486 1486 1486 1487 1488 1488 1488 1489 1489 1489 1489 1489 1489 1490 1490 1490 1490 1491
1468 1468 1468 1468 1468 1468 1468 1468 1468 1468 1468 1468 1468 1469 1469 1469 1469 1469 1469 1469 1469 1469 1469 1469 1469 1469 1469 1469 1470 1470 1470 1471 1471 1472 1473 1474 1475 1476 1476 1477 1477 1478 1478 1478 1479 1479 1480 1480 1481 1482 1483 1483 1484 1484 1485 1485 1485 1486 1487 1487 1487 1487 1487 1487 1487 1487 1487 1487 1488
1467 1467 1467 1467 1467 1467 1467 1466 1466 1466 1466 1466 1467 1467 1467 1467 1467 1467 1467 1467 1467 1467 1467 1467 1467 1467 1468 1468 1468 1468 1468 1469 1469 1470 1471 1472 1473 1474 1474 1475 1475 1476 1476 1476 1476 1477 1477 1479 1480 1481 1481 1482 1482 1482 1482 1483 1483 1484 1484 1485 1484 1484 1484 1484 1484 1485 1485 1486 1487
1466 1465 1465 1465 1465 1465 1465 1465 1465 1465 1465 1465 1465 1465 1465 1465 1465 1465 1465 1465 1465 1465 1465 1465 1466 1466 1466 1466 1466 1467 1467 1467 1467 1468 1469 1470 1471 1472 1472 1472 1473 1473 1473 1474 1474 1475 1476 1477 1478 1478 1479 1479 1480 1480 1480 1481 1481 1482 1482 1482 1482 1482 1482 1482 1482 1483 1483 1484 1486
1464 1464 1463 1463 1463 1463 1463 1464 1464 1463 1463 1463 1463 1463 1463 1463 1463 1463 1463 1463 1463 1463 1463 1463 1464 1464 1465 1465 1465 1465 1465 1466 1467 1467 1468 1469 1469 1470 1470 1471 1471 1471 1472 1472 1473 1474 1475 1475 1476 1476 1477 1477 1477 1478 1478 1478 1479 1479 1480 1480 1480 1480 1480 1480 1481 1481 1482 1483 1485
1462 1462 1462 1462 1462 1462 1462 1462 1462 1462 1462 1462 1462 1462 1462 1462 1462 1462 1462 1462 1462 1462 1462 1462 1462 1463 1463 1463 1464 1464 1465 1465 1466 1467 1467 1467 1468 1468 1468 1469 1469 1470 1471 1472 1472 1473 1473 1473 1474 1474 1474 1475 1475 1475 1476 1476 1477 1477 1477 1477 1478 1478 1478 1478 1479 1481 1482 1483 1485
1460 1460 1460 1460 1460 1460 1460 1460 1460 1460 1460 1460 1460 1460 1460 1460 1460 1460 1460 1460 1460 1460 1460 1460 1461 1461 1462 1462 1462 1463 1464 1464 1465 1465 1466 1466 1467 1467 1467 1467 1468 1469 1470 1471 1471 1471 1471 1472 1472 1472 1472 1473 1473 1473 1473 1474 1474 1475 1475 1476 1476 1477 1477 1478 1479 1480 1482 1483 1485
1458 1458 1458 1458 1458 1458 1458 1458 1458 1459 1459 1458 1458 1458 1458 1458 1458 1458 1458 1458 1458 1458 1458 1459 1459 1460 1460 1461 1462 1462 1463 1463 1463 1464 1464 1464 1465 1465 1465 1466 1467 1467 1468 1469 1469 1469 1469 1470 1470 1470 1470 1471 1471 1471 1472 1472 1473 1473 1474 1474 1475 1476 1476 1477 1478 1480 1481 1482 1484
1457 1456 1456 1456 1456 1456 1456 1456 1456 1457 1457 1457 1457 1457 1457 1456 1456 1456 1456 1457 1457 1457 1457 1457 1458 1459 1459 1460 1460 1461 1461 1462 1462 1462 1462 1463 1463 1463 1464 1465 1466 1466 1467 1467 1467 1467 1468 1468 1468 1468 1468 1469 1469 1469 1470 1471 1471 1472 1472 1473 1474 1475 1476 1477 1478 1479 1481 1483 1485
1455 1455 1454 1454 1454 1453 1454 1454 1454 1454 1455 1455 1455 1455 1455 1454 1454 1455 1455 1455 1455 1456 1456 1456 1457 1457 1458 1458 1459 1459 1459 1460 1460 1460 1461 1461 1462 1462 1463 1464 1464 1465 1465 1465 1466 1466 1466 1466 1466 1467 1467 1467 1467 1468 1468 1469 1470 1470 1471 1472 1473 1474 1476 1477 1478 1480 1482 1485 1487
1453 1453 1452 1452 1452 1452 1452 1452 1452 1453 1453 1453 1453 1453 1452 1453 1453 1453 1453 1454 1454 1454 1455 1455 1455 1456 1456 1457 1457 1457 1458 1458 1459 1459 1459 1460 1461 1461 1462 1463 1463 1463 1463 1464 1464 1464 1464 1465 1465 1465 1465 1465 1466 1466 1467 1467 1468 1469 1470 1472 1473 1474 1476 1478 1480 1482 1484 1487 1488
1452 1451 1451 1450 1450 1450 1450 1450 1450 1451 1451 1451 1451 1451 1451 1451 1451 1452 1452 1452 1453 1453 1453 1453 1454 1454 1454 1455 1455 1456 1457 1457 1457 1458 1458 1459 1459 1460 1461 1461 1462 1462 1462 1462 1462 1462 1463 1463 1463 1463 1463 1464 1464 1465 1466 1467 1467 1469 1470 1471 1473 1475 1477 1479 1481 1483 1485 1487 1487
1450 1450 1449 1449 1449 1449 1448 1448 1448 1448 1449 1449 1449 1449 1449 1449 1450 1450 1451 1451 1452 1452 1452 1452 1452 1452 1453 1453 1454 1454 1455 1456 1456 1457 1457 1457 1458 1459 1459 1460 1460 1460 1460 1461 1461 1461 1462 1462 1462 1462 1463 1463 1464 1464 1465 1466 1467 1469 1470 1472 1474 1476 1478 1481 1482 1484 1485 1486 1486
1448 1448 1448 1447 1447 1447 1447 1447 1447 1447 1447 1447 1447 1447 1447 1447 1448 1449 1449 1450 1450 1450 1450 1450 1450 1451 1451 1452 1452 1453 1454 1454 1455 1455 1456 1456 1457 1457 1458 1458 1458 1459 1459 1459 1460 1460 1461 1461 1462 1462 1462 1463 1463 1464 1465 1466 1468 1469 1472 1474 1476 1478 1480 1481 1482 1483 1484 1484 1485
1446 1446 1446 1446 1445 1445 1445 1445 1445 1446 1446 1446 1446 1446 1446 1446 1447 1447 1448 1448 1449 1449 1449 1449 1449 1449 1450 1451 1451 1452 1452 1453 1453 1454 1454 1455 1456 1456 1457 1457 1457 1458 1459 1459 1459 1460 1460 1461 1462 1462 1462 1463 1463 1465 1466 1467 1469 1471 1473 1475 1477 1479 1480 1481 1482 1482 1483 1484 1484
1445 1444 1444 1444 1444 1444 1444 1444 1444 1445 1445 1445 1445 1445 1445 1446 1446 1447 1447 1447 1448 1448 1448 1448 1448 1448 1449 1449 1450 1450 1451 1452 1452 1453 1453 1454 1454 1455 1456 1456 1457 1457 1458 1459 1459 1460 1460 1461 1462 1462 1463 1464 1465 1466 1467 1469 1471 1472 1474 1476 1477 1479 1480 1481 1481 1482 1482 1483 1483
1443 1443 1443 1443 1443 1443 1443 1443 1443 1444 1444 1444 1444 1445 1445 1445 1446 1446 1447 1447 1447 1447 1447 1447 1447 1448 1448 1448 1449 1449 1450 1450 1451 1452 1452 1453 1453 1454 1455 1456 1456 1457 1457 1458 1459 1460 1461 1461 1462 1463 1464 1465 1466 1467 1469 1470 1472 1473 1475 1476 1477 1478 1479 1480 1480 1481 1482 1482 1482
1442 1442 1442 1442 1442 1442 1442 1443 1443 1443 1443 1443 1444 1444 1444 1445 1445 1445 1446 1446 1446 1446 1446 1447 1447 1447 1447 1447 1448 1448 1449 1449 1450 1451 1452 1452 1453 1454 1455 1455 1456 1457 1458 1459 1459 1460 1461 1462 1462 1464 1465 1466 1467 1468 1470 1471 1472 1474 1475 1476 1477 1477 1478 1479 1479 1480 1480 1481 1481
1442 1442 1442 1442 1442 1442 1442 1442 1442 1443 1443 1443 1443 1443 1444 1444 1444 1444 1445 1445 1445 1445 1446 1446 1446 1446 1447 1447 1447 1448 1448 1449 1450 1451 1452 1452 1453 1454 1455 1456 1457 1457 1458 1459 1460 1461 1462 1462 1463 1465 1466 1467 1468 1469 1470 1471 1472 1473 1474 1475 1476 1477 1477 1478 1478 1479 1479 1480 1480
1442 1442 1442 1442 1442 1442 1442 1442 1442 1442 1442 1442 1442 1442 1443 1443 1443 1443 1443 1444 1444 1444 1445 1445 1445 1446 1446 1446 1447 1447 1448 1449 1450 1451 1452 1453 1454 1455 1456 1457 1457 1458 1459 1459 1460 1461 1462 1463 1465 1466 1467 1467 1468 1469 1470 1471 1472 1473 1474 1475 1475 1476 1476 1477 1477 1478 1478 1479 1479
1442 1442 1442 1442 1442 1442 1442 1442 1442 1442 1442 1442 1442 1442 1442 1442 1442 1442 1443 1443 1443 1444 1444 1444 1445 1445 1445 1446 1447 1447 1448 1450 1451 1452 1453 1454 1455 1455 1456 1457 1457 1458 1459 1460 1461 1462 1463 1464 1465 1467 1467 1468 1469 1469 1470 1470 1471 1472 1473 1474 1475 1475 1475 1476 1476 1477 1477 1478 1478
1442 1442 1442 1441 1442 1442 1442 1441 1441 1442 1442 1442 1442 1442 1442 1442 1442 1442 1442 1442 1443 1443 1444 1444 1444 1445 1445 1446 1447 1448 1450 1451 1452 1452 1453 1454 1455 1456 1456 1457 1458 1459 1460 1461 1462 1462 1464 1465 1466 1467 1468 1468 1469 1469 1469 1470 1471 1472 1472 1473 1474 1474 1475 1475 1476 1476 1477 1477 1477
1442 1441 1441 1441 1441 1441 1441 1441 1441 1441 1441 1441 1442 1442 1442 1442 1442 1442 1442 1442 1443 1443 1443 1444 1445 1445 1446 1447 1448 1449 1450 1451 1452 1452 1453 1454 1455 1456 1457 1457 1458 1459 1460 1461 1462 1463 1464 1465 1466 1467 1468 1468 1468 1469 1469 1470 1471 1471 1472 1472 1473 1474 1474 1474 1475 1475 1476 1476 1476
1442 1442 1441 1441 1441 1441 1441 1441 1441 1441 1441 1442 1442 1442 1442 1442 1442 1442 1442 1443 1443 1444 1444 1445 1446 1446 1447 1448 1448 1449 1450 1450 1451 1452 1453 1454 1455 1456 1457 1458 1459 1460 1461 1462 1463 1464 1465 1466 1466 1467 1467 1468 1468 1469 1469 1470 1470 1471 1472 1472 1472 1473 1473 1473 1474 1474 1474 1474 1475
1442 1442 1442 1442 1442 1442 1441 1441 1441 1441 1442 1442 1442 1442 1442 1442 1443 1443 1443 1444 1444 1445 1445 1446 1446 1447 1447 1447 1448 1448 1449 1450 1451 1452 1453 1454 1455 1457 1458 1459 1460 1461 1462 1463 1463 1464 1465 1466 1466 1467 1467 1468 1468 1469 1469 1469 1470 1471 1471 1472 1472 1472 1472 1472 1472 1473 1473 1473 1473
1442 1442 1442 1442 1442 1442 1442 1442 1442 1442 1442 1442 1442 1443 1443 1443 1444 1444 1444 1445 1445 1445 1446 1446 1446 1447 1447 1447 1448 1448 1449 1450 1451 1452 1453 1455 1456 1457 1458 1460 1461 1462 1462 1463 1464 1465 1465 1466 1467 1467 1467 1468 1468 1468 1469 1469 1469 1470 1470 1471 1471 1471 1471 1471 1472 1472 1472 1472 1473
1442 1443 1442 1442 1442 1442 1442 1442 1442 1442 1442 1443 1443 1444 1444 1444 1445 1445 1445 1445 1446 1446 1446 1446 1446 1447 1447 1448 1448 1449 1449 1450 1452 1453 1454 1456 1457 1458 1459 1460 1461 1462 1463 1463 1464 1465 1466 1466 1467 1467 1467 1467 1468 1468 1468 1469 1469 1469 1470 1470 1470 1470 1470 1470 1471 1471 1472 1472 1473
1443 1443 1443 1443 1443 1443 1443 1443 1443 1443 1443 1444 1444 1445 1445 1445 1445 1446 1446 1446 1446 1446 1446 1447 1447 1447 1448 1448 1449 1449 1450 1451 1452 1453 1455 1456 1457 1458 1459 1460 1462 1462 1463 1464 1465 1465 1466 1466 1467 1467 1467 1467 1467 1468 1468 1468 1468 1468 1469 1469 1469 1469 1470 1470 1471 1471 1472 1472 1472
1444 1444 1444 1444 1444 1444 1444 1444 1444 1444 1444 1445 1445 1445 1446 1446 1446 1447 1447 1447 1447 1447 1447 1447 1448 1448 1449 1449 1450 1451 1451 1452 1453 1454 1456 1457 1458 1459 1460 1461 1462 1463 1464 1465 1465 1465 1466 1466 1466 1467 1467 1467 1467 1467 1467 1467 1468 1468 1468 1468 1469 1469 1470 1470 1471 1471 1472 1472 1472
1444 1444 1444 1444 1444 1445 1445 1445 1445 1445 1445 1445 1446 1446 1446 1447 1447 1447 1447 1448 1448 1448 1448 1448 1448 1449 1449 1450 1451 1452 1452 1453 1454 1456 1457 1458 1459 1460 1461 1462 1463 1464 1464 1465 1465 1465 1466 1466 1466 1466 1466 1467 1467 1467 1467 1467 1467 1468 1468 1468 1469 1469 1470 1470 1471 1471 1471 1471 1471
1445 1445 1445 1445 1445 1445 1445 1445 1446 1446 1446 1446 1447 1447 1447 1447 1448 1448 1449 1449 1449 1449 1449 1449 1450 1450 1451 1451 1452 1453 1454 1455 1456 1457 1458 1459 1460 1461 1462 1463 1463 1464 1465 1465 1465 1465 1465 1465 1466 1466 1466 1466 1466 1466 1467 1467 1467 1468 1468 1469 1469 1470 1470 1470 1471 1471 1471 1471 1471
1446 1446 1446 1446 1446 1446 1446 1446 1446 1447 1447 1447 1447 1448 1448 1449 1449 1449 1450 1450 1450 1450 1450 1451 1451 1452 1452 1453 1454 1455 1456 1457 1457 1458 1459 1461 1462 1462 1463 1463 1464 1464 1464 1465 1465 1465 1465 1465 1465 1465 1466 1466 1466 1467 1467 1467 1468 1468 1469 1469 1469 1470 1470 1470 1470 1470 1470 1470 1469
1447 1447 1447 1447 1447 1447 1447 1447 1447 1448 1448 1448 1449 1449 1449 1450 1450 1451 1451 1452 1452 1452 1452 1452 1452 1453 1454 1455 1455 1456 1457 1458 1459 1460 1461 1462 1462 1463 1463 1464 1464 1464 1464 1464 1465 1465 1465 1465 1465 1466 1466 1466 1467 1467 1467 1468 1468 1469 1469 1469 1469 1469 1469 1469 1469 1469 1469 1469 1468
1447 1447 1448 1448 1448 1448 1448 1449 1449 1449 1450 1450 1450 1451 1451 1451 1451 1452 1452 1453 1453 1453 1453 1453 1454 1455 1455 1456 1457 1457 1458 1459 1460 1461 1462 1462 1463 1463 1463 1464 1464 1464 1464 1465 1465 1465 1465 1466 1466 1466 1466 1467 1467 1467 1468 1468 1468 1468 1469 1469 1469 1469 1469 1468 1468 1468 1468 1468 1467
1448 1449 1449 1449 1449 1450 1450 1450 1451 1451 1451 1452 1452 1452 1452 1452 1453 1453 1454 1454 1454 1455 1455 1455 1456 1456 1457 1458 1458 1459 1460 1461 1461 1462 1462 1463 1463 1463 1463 1464 1464 1464 1464 1465 1465 1466 1466 1466 1467 1467 1467 1467 1467 1468 1468 1468 1468 1468 1468 1468 1468 1468 1468 1468 1467 1467 1467 1467 1466